Simultaneous Nadir Overpasses (SNOs) Predictions

Prediction of SNOs between METOP-A and TERRA Satellite Orbit:

Table of predicted SNOs for the next 14.0 days since TLE Epoch: 4/3/2020
Index Date (METOP-A) Time (METOP-A) Lat,Lon (METOP-A) SZA (METOP-A ) Date (TERRA) Time (TERRA) Lat,Lon (TERRA) SZA (TERRA ) Distance(km) Time Diff (sec)
1 04/06/2020 04:30:45 -81.43, -18.11 102.22 04/06/2020 04:31:11 -81.43, -17.96 102.20 2.50 26
2 04/06/2020 05:21:25 81.42, 149.61 77.81 04/06/2020 05:20:37 81.43, 149.77 77.81 3.00 48
3 04/09/2020 00:05:07 -81.42, 48.54 103.22 04/09/2020 00:05:24 -81.44, 48.67 103.19 2.61 17
4 04/09/2020 00:55:48 81.42,-144.17 76.76 04/09/2020 00:54:51 81.42,-144.02 76.75 2.63 57
5 04/11/2020 19:39:29 -81.42, 114.77 104.25 04/11/2020 19:39:37 -81.42, 114.87 104.24 1.56 8
6 04/11/2020 20:30:09 81.42, -77.58 75.77 04/11/2020 20:29:03 81.43, -77.45 75.76 2.37 66
7 04/14/2020 14:23:11 81.43, 13.71 74.76 04/14/2020 14:24:23 81.43, 13.80 74.81 1.45 72
8 04/14/2020 15:13:51 -81.42,-178.61 105.22 04/14/2020 15:13:50 -81.43,-178.57 105.21 1.30 1
9 04/14/2020 16:04:21 81.30, -7.10 75.21 04/14/2020 16:03:10 81.53, -8.54 75.13 34.80 71
10 04/17/2020 09:57:33 81.42, 80.28 73.81 04/17/2020 09:58:36 81.43, 80.30 73.85 1.21 63




NCC Satellite Simultaneous Nadir Overpasses (SNOs) Prediction Service
